Location: T�bingen+AIT
(48.5342°N, 9.0700°E)
Time: 01:50:22
(UTC+02:00)

Cosmos 371 Rocket - Pass Details

Date: 14 September 2017
Orbit: 683 x 700 km, 74.0° (Epoch: 23 September)

Event Time Altitude Azimuth Distance (km) Brightness Sun altitude
Rises 20:56:53 0° 180° (S) 3,059 6.4 -13.5°
Reaches altitude 10° 20:59:17 10° 173° (S) 2,149 5.6 -13.8°
Maximum altitude 21:03:47 40° 104° (ESE) 1,025 3.7 -14.5°
Drops below altitude 10° 21:08:21 10° 36° (NE) 2,172 5.7 -15.2°
Sets 21:10:47 0° 29° (NNE) 3,096 6.6 -15.6°
